Location: Gunung Kajang
(2.4167°N, 113.7167°E)
Time: 22:23:27
(UTC+00:00)

MOS 1-B Rocket - Pass Details

Date: 29 May 2022
Orbit: 891 x 1605 km, 99.0° (Epoch: 24 June)

Event Time Altitude Azimuth Distance (km) Brightness Sun altitude
Exits shadow 19:50:40 52° 96° (E) 1,135 4.5 -33.8°
Maximum altitude 19:51:10 54° 77° (ENE) 1,110 4.4 -33.7°
Drops below altitude 10° 19:56:35 10° 1° (N) 2,551 6.5 -32.5°
Sets 19:58:58 0° 357° (N) 3,487 7.2 -31.9°
